Location: London
(42.9830°N, 81.2500°W)
Time: 07:55:53
(UTC-04:00)

Amateur Radio Satellites - All Passes

Search period start: 25 July 2016 07:25
Search period end: 26 July 2016 07:25
Location: London, 42.9830°N, 81.2500°W

Satellite Date Start Highest point End Downlink Frequencies (MHz)
Time Altitude Azimuth
GOMX 1 25 Jul 07:36:43 07:41:35 51° 99° (E) 07:46:43 467.674
NOAA 18 25 Jul 07:37:25 07:42:55 57° 101° (ESE) 07:48:20 137.9125
STRAND 1 25 Jul 07:37:50 07:42:57 69° 73° (ENE) 07:48:05 437.568
DOVE 4 25 Jul 07:42:18 07:46:43 29° 95° (E) 07:51:14 437.250
NOAA 15 25 Jul 07:49:53 07:55:10 82° 286° (WNW) 08:00:26 137.62
PRISM 25 Jul 07:55:55 07:57:45 13° 62° (ENE) 07:59:35 437.425
BRITE-PL 25 Jul 08:00:32 08:05:02 46° 288° (WNW) 08:09:53 437.365/2234.400
LilacSat-2 25 Jul 08:10:58 08:14:44 48° 287° (WNW) 08:18:26 437.200
CINEMA 3 25 Jul 08:12:17 08:15:36 17° 90° (E) 08:18:52 145.822/145.860
CANX-2 25 Jul 08:33:38 08:36:53 21° 93° (E) 08:40:07 2200.000
Cubesat XI-IV 25 Jul 08:37:27 08:42:30 43° 291° (WNW) 08:47:30 437.490
RS-15 25 Jul 08:43:40 08:55:12 83° 304° (NW) 09:07:27 29.354- 29.394
CUTE 1.7 + AOD 2 25 Jul 08:47:18 08:50:52 26° 95° (E) 08:54:24 437.475
Cosmos 2491 25 Jul 08:51:43 08:59:49 40° 71° (ENE) 09:07:53 435.465 / 435.565
O/OREOS (USA 219) 25 Jul 08:55:17 08:58:14 17° 260° (W) 09:01:12 437.305
SO-50 25 Jul 08:59:01 09:03:28 36° 116° (ESE) 09:07:54 436.795
HO-68 25 Jul 08:59:53 09:06:43 44° 99° (E) 09:13:28 435.675
CUTE-I 25 Jul 09:02:22 09:06:47 27° 296° (WNW) 09:11:10 437.470
GOMX 1 25 Jul 09:15:39 09:19:21 21° 294° (WNW) 09:23:12 467.674
UWE-3 25 Jul 09:18:25 09:21:11 16° 90° (E) 09:23:53 435.000/436.395/437.385
NOAA 18 25 Jul 09:18:58 09:23:08 22° 299° (WNW) 09:27:16 137.9125
STRAND 1 25 Jul 09:19:44 09:22:37 15° 270° (W) 09:25:30 437.568
DOVE 4 25 Jul 09:19:46 09:24:24 37° 290° (WNW) 09:29:12 437.250
ZACube-1 25 Jul 09:25:25 09:26:49 11° 88° (E) 09:28:13 437.345
FUNcube-1 25 Jul 09:26:16 09:27:09 10° 87° (E) 09:28:03 145.935
PRISM 25 Jul 09:28:33 09:32:35 60° 259° (W) 09:36:37 437.425
SEEDS 25 Jul 09:30:23 09:34:31 56° 100° (E) 09:38:36 437.485
NOAA 15 25 Jul 09:32:06 09:34:06 12° 304° (WNW) 09:36:07 137.62
CUBEBUG 2 25 Jul 09:34:27 09:38:45 33° 96° (E) 09:42:57 437.445
TIGRISAT 25 Jul 09:39:18 09:42:02 16° 62° (ENE) 09:44:48 435.000
COMPASS 1 25 Jul 09:46:32 09:50:38 59° 100° (E) 09:54:42 437.405
CINEMA 3 25 Jul 09:48:07 09:53:03 58° 287° (WNW) 09:57:58 145.822/145.860
UNISAT 6 25 Jul 09:53:52 09:57:28 23° 65° (ENE) 10:01:06 437.425
CANX-2 25 Jul 10:09:00 10:12:49 33° 290° (WNW) 10:16:36 2200.000
Oscar 11 25 Jul 10:09:24 10:13:20 33° 97° (E) 10:17:13 145.826/435.025
AAUSAT CUBESAT 2 25 Jul 10:17:10 10:21:17 77° 286° (WNW) 10:25:24 437.432
YUBILEINY 25 Jul 10:21:44 10:30:12 56° 90° (E) 10:38:45 435.215
CUTE 1.7 + AOD 2 25 Jul 10:23:05 10:26:40 27° 291° (WNW) 10:30:13 437.475
M-CUBED/EXP-1 PRIME 25 Jul 10:26:32 10:29:32 17° 96° (E) 10:32:32 437.505
ANTELSAT 25 Jul 10:31:21 10:35:49 51° 72° (ENE) 10:40:23 437.575/2403.000
SO-50 25 Jul 10:39:33 10:43:59 34° 314° (NW) 10:48:22 436.795
QB50P2 25 Jul 10:47:01 10:49:04 13° 62° (ENE) 10:51:06 145.880/145.840
HO-68 25 Jul 10:47:47 10:54:19 39° 297° (WNW) 11:00:51 435.675
Cosmos 2491 25 Jul 10:48:33 10:56:46 48° 272° (W) 11:05:01 435.465 / 435.565
POLYITAN 1 25 Jul 10:49:34 10:51:41 14° 62° (ENE) 10:53:49 437.675
UWE-3 25 Jul 10:53:26 10:57:59 55° 287° (WNW) 11:02:25 435.000/436.395/437.385
AUBIESAT-1 25 Jul 10:53:58 10:57:50 26° 100° (E) 11:01:41 437.475
HUMSAT D 25 Jul 10:58:02 11:01:28 24° 94° (E) 11:04:50 437.325/437.525
DELFI C3 25 Jul 10:58:55 11:02:47 50° 100° (E) 11:06:36 145.870
ZACube-1 25 Jul 10:59:06 11:03:38 72° 285° (WNW) 11:08:03 437.345
RS-15 25 Jul 10:59:23 11:09:47 34° 333° (NNW) 11:20:38 29.354- 29.394
FUNcube-1 25 Jul 10:59:27 11:03:58 76° 285° (WNW) 11:08:23 145.935
SEEDS 25 Jul 11:07:36 11:09:45 14° 297° (WNW) 11:11:54 437.485
JAS-2 25 Jul 11:10:54 11:12:23 11° 57° (ENE) 11:13:50 435.910
CUBEBUG 2 25 Jul 11:11:14 11:15:14 27° 293° (WNW) 11:19:08 437.445
TIGRISAT 25 Jul 11:13:38 11:18:11 62° 259° (W) 11:22:52 435.000
COMPASS 1 25 Jul 11:23:46 11:25:41 13° 297° (WNW) 11:27:37 437.405
UNISAT 6 25 Jul 11:29:34 11:33:54 40° 263° (W) 11:38:20 437.425
NANOSAT C BR1 25 Jul 11:32:49 11:36:39 34° 70° (ENE) 11:40:31 145.865
Cosmos 2504 25 Jul 11:32:59 11:41:31 55° 90° (E) 11:50:03 435.465 / 435.565
DUCHIFAT 1 25 Jul 11:38:08 11:42:01 37° 70° (ENE) 11:45:56 145.980
Oscar 11 25 Jul 11:45:53 11:49:17 23° 293° (WNW) 11:52:41 145.826/435.025
QB50P1 25 Jul 11:53:31 11:57:42 62° 74° (ENE) 12:01:55 145.935-145.965
POPSAT HIP 1 25 Jul 11:59:42 12:03:55 71° 74° (ENE) 12:08:12 437.405
M-CUBED/EXP-1 PRIME 25 Jul 11:59:44 12:04:19 59° 292° (WNW) 12:08:57 437.505
BUGSAT 1 25 Jul 12:02:13 12:05:46 30° 69° (ENE) 12:09:23 437.445
ANTELSAT 25 Jul 12:09:49 12:12:49 17° 269° (W) 12:15:54 437.575/2403.000
AISAT 25 Jul 12:09:56 12:12:39 16° 92° (E) 12:15:19 437.250
DX 1 25 Jul 12:18:04 12:19:59 13° 90° (E) 12:21:55 434.975-435.025
YUBILEINY 25 Jul 12:19:36 12:27:23 34° 291° (WNW) 12:35:16 435.215
QB50P2 25 Jul 12:20:07 12:24:19 63° 259° (WSW) 12:28:35 145.880/145.840
POLYITAN 1 25 Jul 12:22:45 12:26:58 62° 259° (WSW) 12:31:14 437.675
AUBIESAT-1 25 Jul 12:28:03 12:32:19 37° 295° (WNW) 12:36:34 437.475
HUMSAT D 25 Jul 12:33:24 12:37:06 30° 291° (WNW) 12:40:43 437.325/437.525
Oscar 19 25 Jul 12:34:12 12:37:08 16° 60° (ENE) 12:40:04 437.125/150
ESTCUBE 1 25 Jul 12:34:35 12:38:55 46° 99° (E) 12:43:13 437.505/2401.250
DELFI C3 25 Jul 12:35:12 12:37:12 14° 296° (WNW) 12:39:11 145.870
UKube-1 25 Jul 12:35:20 12:37:56 15° 92° (E) 12:40:30 .
JAS-2 25 Jul 12:50:33 12:56:42 73° 74° (ENE) 13:02:13 435.910
50 SAT 25 Jul 12:56:53 13:00:24 48° 100° (E) 13:03:52 437.505
VELOX 1 25 Jul 13:00:26 13:04:46 50° 100° (E) 13:09:05 145.980
CUBEBUG 1 25 Jul 13:07:18 13:11:42 70° 102° (ESE) 13:16:05 437.445
NANOSAT C BR1 25 Jul 13:09:14 13:12:27 21° 266° (W) 13:15:43 145.865
SPROUT 25 Jul 13:11:53 13:15:46 32° 96° (E) 13:19:38 437.525
DUCHIFAT 1 25 Jul 13:14:44 13:17:50 20° 267° (W) 13:20:58 145.980
RS-15 25 Jul 13:17:37 13:27:21 26° 8° (N) 13:37:14 29.354- 29.394
Cosmos 2504 25 Jul 13:27:15 13:35:13 36° 290° (WNW) 13:43:13 435.465 / 435.565
QB50P1 25 Jul 13:32:14 13:33:53 12° 270° (W) 13:35:32 145.935-145.965
Gurwin Techsat 1B 25 Jul 13:35:41 13:40:01 26° 64° (ENE) 13:44:21 435.225
BUGSAT 1 25 Jul 13:37:53 13:41:09 23° 266° (W) 13:44:28 437.445
POPSAT HIP 1 25 Jul 13:39:32 13:40:11 10° 271° (W) 13:40:51 437.405
AISAT 25 Jul 13:45:04 13:49:24 52° 288° (WNW) 13:53:44 437.250
AIST 1 25 Jul 13:49:03 13:52:45 30° 90° (E) 13:56:28
DX 1 25 Jul 13:52:15 13:56:35 62° 287° (WNW) 14:00:54 434.975-435.025
ITAMSAT 1 25 Jul 14:03:35 14:06:48 17° 60° (ENE) 14:10:01 435.822/435.867
UKube-1 25 Jul 14:10:03 14:14:15 50° 288° (WNW) 14:18:25 .
Oscar 19 25 Jul 14:10:44 14:15:50 74° 257° (WSW) 14:20:59 437.125/150
AO-7 25 Jul 14:10:52 14:16:40 21° 49° (NE) 14:22:28 29.400- 29.500
ESTCUBE 1 25 Jul 14:12:16 14:15:23 19° 296° (WNW) 14:18:30 437.505/2401.250
TISAT 1 25 Jul 14:14:59 14:18:57 36° 98° (E) 14:22:53 437.305
50 SAT 25 Jul 14:32:11 14:33:37 12° 296° (WNW) 14:35:02 437.505
AO-85 25 Jul 14:33:05 14:37:58 36° 115° (ESE) 14:42:41 145.980
GONETS M04 25 Jul 14:34:29 14:38:45 15° 74° (ENE) 14:43:01
VELOX 1 25 Jul 14:37:56 14:40:51 17° 297° (WNW) 14:43:46 145.980
JAS-2 25 Jul 14:38:37 14:42:12 16° 268° (W) 14:45:37 435.910
Cosmos 2499 25 Jul 14:45:21 14:48:23 12° 73° (ENE) 14:51:24 435.465 / 435.565
CUBEBUG 1 25 Jul 14:45:28 14:47:25 13° 299° (WNW) 14:49:21 437.445
SPROUT 25 Jul 14:48:04 14:51:35 24° 293° (WNW) 14:55:03 437.525
SWISSCUBE 25 Jul 14:52:19 14:55:51 20° 93° (E) 14:59:21 437.505
BEESAT 25 Jul 15:13:28 15:17:38 29° 96° (E) 15:21:46 436.000
Gurwin Techsat 1B 25 Jul 15:14:40 15:19:43 44° 262° (W) 15:24:48 435.225
AIST 1 25 Jul 15:26:59 15:30:21 23° 288° (WNW) 15:33:45
RS-15 25 Jul 15:32:07 15:43:58 48° 41° (NE) 15:55:43 29.354- 29.394
ITUPSAT 1 25 Jul 15:34:55 15:39:32 47° 100° (E) 15:44:06 437.325
ITAMSAT 1 25 Jul 15:40:27 15:45:41 72° 257° (WSW) 15:50:55 435.822/435.867
TISAT 1 25 Jul 15:51:10 15:54:22 21° 294° (WNW) 15:57:34 437.305
CUSAT 1 25 Jul 15:58:30 16:01:18 53° 261° (W) 16:04:40 437.405
AO-7 25 Jul 15:59:53 16:08:15 83° 70° (ENE) 16:16:41 29.400- 29.500
DANDE 25 Jul 16:02:54 16:05:16 30° 77° (ENE) 16:07:44 436.750
MOZHAYETS 4 25 Jul 16:13:02 16:15:49 16° 91° (E) 16:18:36
AO-85 25 Jul 16:13:29 16:18:27 38° 312° (NW) 16:23:13 145.980
HORYU 2 25 Jul 16:16:50 16:19:34 16° 62° (ENE) 16:22:18 437.375
GONETS M04 25 Jul 16:25:20 16:33:59 77° 95° (E) 16:42:42
SWISSCUBE 25 Jul 16:29:19 16:33:51 44° 290° (WNW) 16:38:20 437.505
Cosmos 2499 25 Jul 16:31:03 16:39:47 64° 92° (E) 16:48:21 435.465 / 435.565
STARS 25 Jul 16:37:59 16:39:59 13° 90° (E) 16:41:58 437.465
BEESAT 25 Jul 16:51:12 16:55:23 31° 293° (WNW) 16:59:32 436.000
CUTE-I 25 Jul 17:08:54 17:10:40 12° 56° (NE) 17:12:25 437.470
ITUPSAT 1 25 Jul 17:13:32 17:17:02 21° 297° (WNW) 17:20:30 437.325
NOAA 18 25 Jul 17:26:32 17:30:10 18° 59° (ENE) 17:33:50 137.9125
CUBESAT XI-V 25 Jul 17:28:01 17:29:39 12° 89° (E) 17:31:16 437.345
KKS-1 25 Jul 17:28:18 17:32:50 88° 106° (ESE) 17:37:19 437.445
SO-50 25 Jul 17:29:28 17:33:54 41° 49° (NE) 17:38:11 436.795
NOAA 15 25 Jul 17:32:39 17:36:46 24° 63° (ENE) 17:40:54 137.62
BRITE-PL 25 Jul 17:35:37 17:38:47 21° 66° (ENE) 17:41:56 437.365/2234.400
RS-15 25 Jul 17:44:58 17:57:04 64° 245° (WSW) 18:08:59 29.354- 29.394
MOZHAYETS 4 25 Jul 17:48:51 17:53:19 53° 287° (WNW) 17:57:44
HORYU 2 25 Jul 17:51:15 17:55:40 56° 259° (W) 18:00:06 437.375
AO-7 25 Jul 17:55:51 18:01:54 22° 269° (W) 18:08:00 29.400- 29.500
STARS 25 Jul 18:12:21 18:16:45 63° 287° (WNW) 18:21:08 437.465
Cubesat XI-IV 25 Jul 18:20:26 18:25:33 47° 70° (ENE) 18:30:42 437.490
GONETS M04 25 Jul 18:25:02 18:31:46 24° 296° (WNW) 18:38:35
Cosmos 2499 25 Jul 18:25:49 18:33:27 31° 292° (WNW) 18:40:57 435.465 / 435.565
CUTE-I 25 Jul 18:44:26 18:49:48 76° 73° (ENE) 18:55:11 437.470
GOMX 1 25 Jul 18:46:23 18:50:25 53° 73° (ENE) 18:54:38 467.674
DOVE 4 25 Jul 18:49:18 18:52:53 27° 67° (ENE) 18:56:38 437.250
LilacSat-2 25 Jul 18:53:11 18:57:04 90° 66° (ENE) 19:00:59 437.200
CUBESAT XI-V 25 Jul 19:02:55 19:07:32 72° 285° (WNW) 19:12:07 437.345
NOAA 18 25 Jul 19:04:43 19:10:13 72° 257° (WSW) 19:15:48 137.9125
KKS-1 25 Jul 19:07:35 19:08:41 11° 301° (WNW) 19:09:47 437.445
PHONESAT 2.4 25 Jul 19:09:28 19:12:13 30° 163° (SSE) 19:14:59 2401.200-2431.200
SO-50 25 Jul 19:10:24 19:14:09 25° 247° (WSW) 19:17:48 436.795
NOAA 15 25 Jul 19:11:13 19:16:15 47° 261° (W) 19:21:19 137.62
BRITE-PL 25 Jul 19:13:24 19:17:08 32° 263° (W) 19:20:52 437.365/2234.400
CINEMA 3 25 Jul 19:15:19 19:18:09 17° 62° (ENE) 19:21:04 145.822/145.860
BEESAT 3 25 Jul 19:23:17 19:26:52 35° 117° (ESE) 19:30:29 437.485
BEESAT 2 25 Jul 19:26:24 19:29:23 21° 113° (ESE) 19:32:24 435.950
CANX-2 25 Jul 19:27:38 19:30:36 18° 65° (ENE) 19:33:33 2200.000
HO-68 25 Jul 19:29:35 19:36:00 37° 62° (ENE) 19:42:25 435.675
CUTE 1.7 + AOD 2 25 Jul 19:41:02 19:44:20 22° 67° (ENE) 19:47:38 437.475
STRAND 1 25 Jul 19:48:14 19:52:07 21° 93° (E) 19:55:59 437.568
Cubesat XI-IV 25 Jul 20:01:32 20:05:50 24° 267° (W) 20:10:08 437.490
RS-15 25 Jul 20:01:36 20:06:53 14° 267° (W) 20:12:10 29.354- 29.394
PCSat 25 Jul 20:12:53 20:18:04 49° 114° (ESE) 20:23:18 145.827
UWE-3 25 Jul 20:16:31 20:19:11 15° 62° (ENE) 20:21:52 435.000/436.395/437.385
ZACube-1 25 Jul 20:22:28 20:24:00 12° 60° (ENE) 20:25:32 437.345
SEEDS 25 Jul 20:22:42 20:26:42 43° 72° (ENE) 20:30:43 437.485
FUNcube-1 25 Jul 20:22:58 20:24:07 11° 59° (ENE) 20:25:15 145.935
DOVE 4 25 Jul 20:26:51 20:30:32 28° 266° (W) 20:34:23 437.250
GOMX 1 25 Jul 20:27:02 20:28:58 13° 271° (W) 20:30:56 467.674
CUTE-I 25 Jul 20:27:36 20:30:25 14° 271° (W) 20:33:15 437.470
YUBILEINY 25 Jul 20:31:03 20:38:30 29° 66° (ENE) 20:45:53 435.215
CUBEBUG 2 25 Jul 20:33:11 20:37:11 31° 68° (ENE) 20:41:19 437.445
COMPASS 1 25 Jul 20:37:52 20:41:50 44° 72° (ENE) 20:45:50 437.405
PHONESAT 2.4 25 Jul 20:45:28 20:48:29 53° 179° (S) 20:51:30 2401.200-2431.200
CINEMA 3 25 Jul 20:50:23 20:54:46 56° 260° (W) 20:59:25 145.822/145.860
BEESAT 3 25 Jul 21:01:24 21:04:38 24° 315° (NW) 21:07:53 437.485
CANX-2 25 Jul 21:02:04 21:06:08 42° 262° (W) 21:10:14 2200.000
BEESAT 2 25 Jul 21:03:17 21:06:59 37° 310° (NW) 21:10:44 435.950
Oscar 11 25 Jul 21:04:58 21:08:44 29° 69° (ENE) 21:12:31 145.826/435.025
AAUSAT CUBESAT 2 25 Jul 21:07:46 21:11:56 76° 74° (ENE) 21:16:05 437.432
PRISM 25 Jul 21:10:05 21:12:43 16° 93° (E) 21:15:21 437.425
AIST 2 25 Jul 21:13:05 21:15:15 14° 109° (ESE) 21:17:25 435.215
M-CUBED/EXP-1 PRIME 25 Jul 21:13:59 21:16:47 20° 59° (ENE) 21:19:44 437.505
CUTE 1.7 + AOD 2 25 Jul 21:16:04 21:19:59 34° 263° (W) 21:23:54 437.475
HO-68 25 Jul 21:16:40 21:23:31 47° 260° (W) 21:30:26 435.675
Cosmos 2504 25 Jul 21:26:14 21:32:03 20° 61° (ENE) 21:37:35 435.465 / 435.565
STRAND 1 25 Jul 21:26:38 21:31:32 47° 290° (WNW) 21:36:24 437.568
O/OREOS (USA 219) 25 Jul 21:27:58 21:32:15 47° 108° (ESE) 21:36:33 437.305
AUBIESAT-1 25 Jul 21:40:53 21:44:16 31° 63° (ENE) 21:47:53 437.475
DELFI C3 25 Jul 21:45:37 21:49:12 33° 70° (ENE) 21:52:47 145.870
HUMSAT D 25 Jul 21:50:19 21:53:29 20° 66° (ENE) 21:56:40 437.325/437.525
UWE-3 25 Jul 21:50:35 21:55:06 63° 260° (W) 21:59:44 435.000/436.395/437.385
Cosmos 2491 25 Jul 21:54:09 22:02:11 44° 87° (E) 22:10:13 435.465 / 435.565
ZACube-1 25 Jul 21:55:02 21:59:33 84° 256° (WSW) 22:04:12 437.345
FUNcube-1 25 Jul 21:55:05 21:59:36 89° 245° (WSW) 22:04:12 145.935
PCSat 25 Jul 21:57:02 22:01:42 29° 313° (NW) 22:06:24 145.827
SEEDS 25 Jul 21:59:49 22:02:36 17° 268° (W) 22:05:24 437.485
CUBEBUG 2 25 Jul 22:09:51 22:13:46 28° 266° (W) 22:17:49 437.445
COMPASS 1 25 Jul 22:14:59 22:17:36 16° 268° (W) 22:20:16 437.405
PHONESAT 2.4 25 Jul 22:21:56 22:24:46 34° 195° (SSW) 22:27:36 2401.200-2431.200
ISS 25 Jul 22:22:43 22:25:40 32° 138° (SE) 22:28:38 145.825
ANTELSAT 25 Jul 22:25:27 22:26:00 10° 87° (E) 22:26:33 437.575/2403.000
YUBILEINY 25 Jul 22:27:14 22:35:59 66° 268° (W) 22:44:38 435.215
Oscar 11 25 Jul 22:41:10 22:44:50 26° 265° (W) 22:48:31 145.826/435.025
PRISM 25 Jul 22:44:21 22:48:13 41° 289° (WNW) 22:52:04 437.425
M-CUBED/EXP-1 PRIME 25 Jul 22:47:37 22:51:02 35° 258° (WSW) 22:54:45 437.505
AIST 2 25 Jul 22:49:11 22:53:14 58° 306° (NW) 22:57:21 435.215
AO-85 25 Jul 23:04:21 23:08:29 34° 47° (NE) 23:12:17 145.980
TIGRISAT 25 Jul 23:04:47 23:08:42 26° 94° (E) 23:12:32 435.000
AISAT 25 Jul 23:08:31 23:11:15 16° 63° (ENE) 23:14:01 437.250
O/OREOS (USA 219) 25 Jul 23:08:39 23:11:54 19° 306° (NW) 23:15:11 437.305
DX 1 25 Jul 23:14:49 23:16:56 14° 61° (ENE) 23:19:04 434.975-435.025
AUBIESAT-1 25 Jul 23:15:52 23:18:48 21° 262° (W) 23:21:56 437.475
Cosmos 2504 25 Jul 23:18:22 23:26:40 85° 266° (W) 23:34:18 435.465 / 435.565
UNISAT 6 25 Jul 23:20:15 23:24:39 40° 98° (E) 23:28:56 437.425
DELFI C3 25 Jul 23:21:13 23:24:07 19° 267° (W) 23:27:02 145.870
HUMSAT D 25 Jul 23:24:49 23:28:51 39° 263° (W) 23:32:54 437.325/437.525
UKube-1 25 Jul 23:31:05 23:33:41 16° 63° (ENE) 23:36:16 .
ESTCUBE 1 25 Jul 23:34:46 23:39:04 47° 72° (ENE) 23:43:23 437.505/2401.250
50 SAT 25 Jul 23:35:29 23:38:32 25° 69° (ENE) 23:41:36 437.505
POPSAT HIP 1 25 Jul 23:46:05 23:47:14 11° 89° (E) 23:48:23 437.405
Cosmos 2491 25 Jul 23:50:50 23:59:00 43° 288° (WNW) 00:07:13 435.465 / 435.565
VELOX 1 25 Jul 23:58:25 00:02:38 49° 72° (ENE) 00:06:54 145.980
ANTELSAT 25 Jul 23:58:39 00:03:20 82° 286° (WNW) 00:07:54 437.575/2403.000
ISS 25 Jul 23:59:00 00:02:04 37° 336° (NNW) 00:05:08 145.825
PHONESAT 2.4 26 Jul 00:00:07 00:00:43 10° 211° (SSW) 00:01:20 2401.200-2431.200
CUBEBUG 1 26 Jul 00:03:53 00:08:08 64° 74° (ENE) 00:12:25 437.445
QB50P2 26 Jul 00:04:53 00:08:02 20° 93° (E) 00:11:09 145.880/145.840
SPROUT 26 Jul 00:06:23 00:09:59 27° 68° (ENE) 00:13:39 437.525
POLYITAN 1 26 Jul 00:07:30 00:10:41 20° 93° (E) 00:13:51 437.675
YUBILEINY 26 Jul 00:27:59 00:30:55 12° 288° (WNW) 00:33:49 435.215
AIST 2 26 Jul 00:32:00 00:32:37 10° 327° (NNW) 00:33:14 435.215
TIGRISAT 26 Jul 00:41:14 00:45:24 33° 292° (WNW) 00:49:28 435.000
AISAT 26 Jul 00:43:03 00:47:19 52° 260° (W) 00:51:37 437.250
AO-85 26 Jul 00:45:09 00:48:45 26° 247° (WSW) 00:52:06 145.980
DX 1 26 Jul 00:48:19 00:52:36 64° 258° (WSW) 00:56:56 434.975-435.025
NANOSAT C BR1 26 Jul 00:51:25 00:55:39 56° 101° (E) 00:59:50 145.865
DUCHIFAT 1 26 Jul 00:56:29 01:00:44 60° 101° (E) 01:04:56 145.980
UNISAT 6 26 Jul 00:57:30 01:01:06 22° 295° (WNW) 01:04:38 437.425
UKube-1 26 Jul 01:05:07 01:09:18 52° 259° (W) 01:13:32 .
TISAT 1 26 Jul 01:07:31 01:11:12 30° 68° (ENE) 01:14:54 437.305
50 SAT 26 Jul 01:09:16 01:12:09 21° 265° (W) 01:15:01 437.505
QB50P1 26 Jul 01:12:53 01:17:12 79° 283° (WNW) 01:21:27 145.935-145.965
ESTCUBE 1 26 Jul 01:13:09 01:16:07 17° 268° (W) 01:19:07 437.505/2401.250
Cosmos 2504 26 Jul 01:14:10 01:18:34 16° 285° (WNW) 01:22:50 435.465 / 435.565
BUGSAT 1 26 Jul 01:17:41 01:21:47 45° 99° (E) 01:25:52 437.445
POPSAT HIP 1 26 Jul 01:19:12 01:23:29 69° 285° (WNW) 01:27:44 437.405
AIST 1 26 Jul 01:31:41 01:36:02 87° 263° (W) 01:40:24
VELOX 1 26 Jul 01:36:42 01:39:23 16° 268° (W) 01:42:06 145.980
ISS 26 Jul 01:36:49 01:39:10 18° 356° (N) 01:41:29 145.825
ANTELSAT 26 Jul 01:39:03 01:39:13 10° 302° (WNW) 01:39:22 437.575/2403.000
QB50P2 26 Jul 01:39:59 01:43:58 38° 290° (WNW) 01:47:55 145.880/145.840
SPROUT 26 Jul 01:42:15 01:45:53 27° 265° (W) 01:49:34 437.525
POLYITAN 1 26 Jul 01:42:38 01:46:37 37° 290° (WNW) 01:50:34 437.675
JAS-2 26 Jul 01:42:51 01:48:01 55° 101° (E) 01:53:35 435.910
CUBEBUG 1 26 Jul 01:43:13 01:44:50 12° 270° (W) 01:46:29 437.445
SWISSCUBE 26 Jul 01:59:29 02:03:29 27° 66° (ENE) 02:07:29 437.505
BEESAT 26 Jul 02:20:31 02:24:57 38° 69° (ENE) 02:29:22 436.000
Oscar 19 26 Jul 02:21:29 02:26:14 36° 97° (E) 02:30:59 437.125/150
Cosmos 2499 26 Jul 02:23:01 02:29:00 23° 63° (ENE) 02:34:38 435.465 / 435.565
NANOSAT C BR1 26 Jul 02:28:32 02:30:55 15° 297° (WNW) 02:33:17 145.865
DUCHIFAT 1 26 Jul 02:33:43 02:35:55 14° 298° (WNW) 02:38:07 145.980
GONETS M04 26 Jul 02:34:35 02:42:46 40° 71° (ENE) 02:50:55
ITUPSAT 1 26 Jul 02:42:16 02:47:00 61° 72° (ENE) 02:51:45 437.325
TISAT 1 26 Jul 02:43:28 02:46:51 23° 265° (W) 02:50:16 437.305
BUGSAT 1 26 Jul 02:53:58 02:56:49 18° 296° (WNW) 02:59:38 437.445
KKS-1 26 Jul 02:55:00 02:55:31 10° 58° (ENE) 02:56:01 437.445
ISS 26 Jul 03:13:40 03:16:24 24° 16° (NNE) 03:19:07 145.825
MOZHAYETS 4 26 Jul 03:15:50 03:18:58 18° 64° (ENE) 03:22:06
PCSat 26 Jul 03:18:32 03:20:11 11° 32° (NNE) 03:21:49 145.827
JAS-2 26 Jul 03:29:03 03:32:49 20° 297° (WNW) 03:36:42 435.910
Gurwin Techsat 1B 26 Jul 03:29:32 03:34:51 69° 102° (ESE) 03:40:09 435.225
STARS 26 Jul 03:35:46 03:38:02 14° 61° (ENE) 03:40:17 437.465
SWISSCUBE 26 Jul 03:36:46 03:41:08 35° 263° (W) 03:45:32 437.505
BEESAT 3 26 Jul 03:39:30 03:43:03 30° 48° (NE) 03:46:34 437.485
BEESAT 2 26 Jul 03:42:58 03:46:01 20° 43° (NE) 03:49:03 435.950
ITAMSAT 1 26 Jul 03:52:35 03:57:24 37° 97° (E) 04:02:11 435.822/435.867
BEESAT 26 Jul 03:58:58 04:02:49 24° 266° (W) 04:06:42 436.000
Oscar 19 26 Jul 04:01:00 04:05:26 30° 294° (WNW) 04:09:53 437.125/150
AO-7 26 Jul 04:01:28 04:08:05 25° 93° (E) 04:14:38 29.400- 29.500
Cosmos 2499 26 Jul 04:15:09 04:23:05 74° 266° (W) 04:30:22 435.465 / 435.565
ITUPSAT 1 26 Jul 04:22:29 04:25:13 15° 269° (W) 04:28:00 437.325
KKS-1 26 Jul 04:26:54 04:31:20 89° 76° (ENE) 04:35:50 437.445
GONETS M04 26 Jul 04:31:26 04:39:42 48° 272° (W) 04:47:59
CUBESAT XI-V 26 Jul 04:32:11 04:34:35 14° 62° (ENE) 04:36:58 437.345
ISS 26 Jul 04:49:52 04:53:08 82° 214° (SW) 04:56:23 145.825
MOZHAYETS 4 26 Jul 04:51:14 04:55:45 51° 261° (W) 05:00:17
PCSat 26 Jul 04:59:42 05:04:58 48° 54° (NE) 05:10:12 145.827
CUSAT 1 26 Jul 05:02:39 05:06:52 55° 281° (W) 05:10:09 437.405
STARS 26 Jul 05:09:30 05:13:51 64° 258° (WSW) 05:18:15 437.465
DANDE 26 Jul 05:10:38 05:16:26 62° 98° (E) 05:20:45 436.750
Gurwin Techsat 1B 26 Jul 05:10:49 05:14:14 18° 300° (WNW) 05:17:38 435.225
BEESAT 3 26 Jul 05:17:17 05:20:38 26° 246° (WSW) 05:23:58 437.485
BEESAT 2 26 Jul 05:20:13 05:24:04 46° 242° (WSW) 05:27:53 435.950
AIST 2 26 Jul 05:32:06 05:34:50 17° 40° (NE) 05:37:34 435.215
ITAMSAT 1 26 Jul 05:32:19 05:36:44 29° 295° (WNW) 05:41:08 435.822/435.867
HORYU 2 26 Jul 05:41:40 05:45:22 25° 95° (E) 05:49:02 437.375
AO-7 26 Jul 05:53:13 06:01:33 73° 292° (WNW) 06:09:49 29.400- 29.500
O/OREOS (USA 219) 26 Jul 05:59:00 06:01:21 14° 50° (NE) 06:03:43 437.305
RS-15 26 Jul 06:01:17 06:08:48 20° 97° (E) 06:16:30 29.354- 29.394
CUBESAT XI-V 26 Jul 06:06:48 06:11:24 68° 258° (WSW) 06:16:01 437.345
Cosmos 2499 26 Jul 06:11:42 06:14:31 12° 287° (WNW) 06:17:16 435.465 / 435.565
ISS 26 Jul 06:28:46 06:29:03 10° 231° (SW) 06:29:20 145.825
Cubesat XI-IV 26 Jul 06:37:51 06:41:16 17° 91° (E) 06:44:39 437.490
PCSat 26 Jul 06:43:40 06:48:04 26° 252° (WSW) 06:52:28 145.827
GOMX 1 26 Jul 06:47:02 06:50:27 18° 91° (E) 06:53:58 467.674
DANDE 26 Jul 06:56:21 06:59:11 14° 288° (WNW) 07:01:41 436.750
CUTE-I 26 Jul 07:01:05 07:05:39 28° 95° (E) 07:10:10 437.470
STRAND 1 26 Jul 07:04:41 07:09:18 35° 67° (ENE) 07:13:57 437.568
AIST 2 26 Jul 07:09:36 07:13:46 69° 239° (WSW) 07:17:54 435.215
BRITE-PL 26 Jul 07:15:09 07:19:54 66° 101° (ESE) 07:25:02 437.365/2234.400
